Flag for Canada Weather past 2 weeks in Kelowna, British Columbia, Canada

Now
54 °F

Light rain. Overcast.


Feels Like: 52 °F
Forecast: 54 / 67 °F
Wind: 7 mph from Southeast

Location: Kelowna Airport

Current Time: Jul 24, 2014 at 9:10:06 AM

Latest Report: Jul 24, 2014 at 8:00 AM


Visibility: 9 mi

Pressure: 29.99 "Hg

Humidity: 88%

Dew point: 50 °F

Location of KelownaLocation

Historic Weather in Kelowna — Graph

°F

Kelowna temperature yesterday

Maximum temperature yesterday: 79 °F (at 1:00 PM)
Minimum temperature yesterday: 54 °F (at 5:00 AM)
Average temperature yesterday: 64 °F

Past Weeks' High & Low Weather Summary

 TemperatureHumidityPressure
High100 °F (Jul 13, 5:00 PM)94% (Jul 23, 6:00 PM)30.14 "Hg (Jul 23, 6:00 PM)
Low50 °F (Jul 11, 5:00 AM)12% (Jul 12, 4:00 PM)29.68 "Hg (Jul 17, 4:00 PM)
Average74 °F46%29.90 "Hg
* Reported Jul 9 8:00 AM — Jul 24 8:00 AM, Kelowna, Weather by CustomWeather, © 2014

Note: Actual official high and low records may vary slightly from our data, if they occured in-between our weather recording intervals... More about our weather records

Advertising

Kelowna weather history for previous 24 hours

 ConditionsComfort  
Time TempWeatherWind HumidityBarometerVisibility
8:00 AM
Jul 24
54 °FLight rain. Overcast.7 mph88%29.99 "Hg9 mi
7:56 AM54 °FLight rain. Overcast.5 mph88%29.99 "Hg9 mi
7:00 AM54 °FOvercast.2 mph88%29.97 "HgN/A
6:00 AM50 °FOvercast.5 mph94%29.97 "HgN/A
5:00 AM50 °FPassing clouds.3 mph94%29.96 "HgN/A
4:00 AM52 °FOvercast.5 mph94%29.95 "HgN/A
3:00 AM54 °FOvercast.8 mph82%29.93 "HgN/A
2:00 AM54 °FOvercast.14 mph88%29.96 "HgN/A
1:00 AM55 °FOvercast.8 mph88%29.90 "HgN/A
12:00 AM59 °FMostly cloudy.15 mph82%29.88 "HgN/A
11:00 PM
Jul 23
59 °FOvercast.13 mph88%29.86 "HgN/A
10:00 PM61 °FMostly cloudy.2 mph94%29.86 "HgN/A
9:00 PM61 °FMostly cloudy.No wind94%29.87 "HgN/A
8:00 PM61 °FOvercast.3 mph94%29.87 "HgN/A
7:00 PM63 °FBroken clouds.8 mph88%29.83 "HgN/A
6:00 PM61 °FMostly cloudy.7 mph94%29.89 "HgN/A
5:00 PM61 °FCloudy.No wind88%29.89 "HgN/A
4:03 PM63 °FStrong thunderstorms. Mostly cloudy.7 mph83%29.90 "Hg4 mi
3:52 PM64 °FStrong thunderstorms. Mostly cloudy.5 mph73%29.88 "Hg8 mi
3:00 PM79 °FSunny.18 mph45%29.78 "Hg9 mi
2:00 PM79 °FSunny.16 mph45%29.82 "Hg9 mi
1:00 PM79 °FSunny.9 mph45%29.87 "Hg9 mi
12:00 PM75 °FScattered clouds.7 mph47%29.90 "Hg9 mi
11:00 AM72 °FPartly sunny.6 mph53%29.94 "Hg9 mi
10:00 AM72 °FPartly sunny.12 mph53%29.96 "Hg9 mi
9:00 AM68 °FBroken clouds.5 mph60%29.99 "Hg9 mi
Weather by CustomWeather, © 2014

See weather overviewHow to use our weather pages